| time (UTC) | temp F | wind direction | speed MPH | gust MPH | rain 1hr in | rain 24hr in | rain mn in | humidity % | barometer mb |
| 20260505010051 | 64 | 131 | 0.0 | 4.0 | 0.00 | 0.00 | 0.00 | 71 | 1016.8 |
| 20260505004550 | 65 | 268 | 0.0 | 4.0 | 0.00 | 0.00 | 0.00 | 70 | 1016.5 |
| 20260505001513 | 65 | 141 | 2.0 | 8.0 | 0.00 | 0.00 | 0.00 | 68 | 1016.2 |
| 20260505000125 | 66 | 198 | 0.0 | 8.0 | 0.00 | 0.00 | 0.00 | 67 | 1016.2 |
| 20260504234508 | 66 | 209 | 2.0 | 12.0 | 0.00 | 0.00 | 0.00 | 66 | 1016.2 |
| 20260504233008 | 67 | 233 | 2.0 | 10.0 | 0.00 | 0.00 | 0.00 | 65 | 1016.1 |
| 20260504231507 | 67 | 176 | 2.0 | 9.0 | 0.00 | 0.00 | 0.00 | 63 | 1015.9 |
| 20260504230059 | 68 | 170 | 1.0 | 10.0 | 0.00 | 0.00 | 0.00 | 63 | 1015.9 |
| 20260504224511 | 68 | 118 | 3.0 | 12.0 | 0.00 | 0.00 | 0.00 | 61 | 1016.0 |
| 20260504223000 | 69 | 203 | 2.0 | 13.0 | 0.00 | 0.00 | 0.00 | 61 | 1016.0 |
| 20260504221520 | 70 | 123 | 4.0 | 13.0 | 0.00 | 0.00 | 0.00 | 58 | 1016.0 |
| 20260504220019 | 70 | 232 | 4.0 | 14.0 | 0.00 | 0.00 | 0.00 | 58 | 1016.1 |
| 20260504214508 | 70 | 219 | 3.0 | 19.0 | 0.00 | 0.00 | 0.00 | 58 | 1016.2 |
| 20260504213004 | 70 | 146 | 7.0 | 14.0 | 0.00 | 0.00 | 0.00 | 56 | 1016.1 |
| 20260504211520 | 71 | 153 | 5.0 | 15.0 | 0.00 | 0.00 | 0.00 | 54 | 1016.2 |
| 20260504210019 | 71 | 133 | 5.0 | 11.0 | 0.00 | 0.00 | 0.00 | 55 | 1016.2 |
| 20260504204553 | 71 | 172 | 6.0 | 15.0 | 0.00 | 0.00 | 0.00 | 55 | 1016.3 |
| 20260504203055 | 71 | 124 | 4.0 | 18.0 | 0.00 | 0.00 | 0.00 | 55 | 1016.2 |
| 20260504201515 | 71 | 185 | 6.0 | 18.0 | 0.00 | 0.00 | 0.00 | 56 | 1016.3 |
| 20260504200111 | 71 | 115 | 5.0 | 20.0 | 0.00 | 0.00 | 0.00 | 56 | 1016.5 |
| 20260504194537 | 72 | 147 | 7.0 | 13.0 | 0.00 | 0.00 | 0.00 | 55 | 1016.6 |
| 20260504193036 | 71 | 156 | 4.0 | 19.0 | 0.00 | 0.00 | 0.00 | 57 | 1016.8 |
| 20260504191547 | 71 | 162 | 7.0 | 16.0 | 0.00 | 0.00 | 0.00 | 57 | 1016.9 |
| 20260504190038 | 71 | 153 | 8.0 | 17.0 | 0.00 | 0.00 | 0.00 | 55 | 1017.0 |
| 20260504184525 | 71 | 113 | 5.0 | 16.0 | 0.00 | 0.00 | 0.00 | 56 | 1017.0 |
| 20260504183020 | 71 | 209 | 4.0 | 16.0 | 0.00 | 0.00 | 0.00 | 56 | 1017.3 |
| 20260504181516 | 71 | 315 | 8.0 | 17.0 | 0.00 | 0.00 | 0.00 | 56 | 1017.4 |
| 20260504180014 | 72 | 101 | 4.0 | 16.0 | 0.00 | 0.00 | 0.00 | 57 | 1017.4 |
| 20260504174543 | 71 | 134 | 7.0 | 16.0 | 0.00 | 0.00 | 0.00 | 58 | 1017.3 |
| 20260504174537 | 71 | 79 | 7.0 | 16.0 | 0.00 | 0.00 | 0.00 | 58 | 1017.4 |
| 20260504173017 | 71 | 146 | 6.0 | 15.0 | 0.00 | 0.00 | 0.00 | 58 | 1017.6 |
| 20260504171518 | 72 | 112 | 9.0 | 15.0 | 0.00 | 0.00 | 0.00 | 55 | 1017.6 |
| 20260504130147 | 66 | 94 | 0.0 | 3.0 | 0.00 | 0.00 | 0.00 | 71 | 1018.4 |
| 20260504081529 | 42 | 163 | 0.0 | 0.0 | 0.00 | 0.01 | 0.00 | 92 | 1018.7 |
| 20260504044542 | 46 | 163 | 0.0 | 0.0 | 0.00 | 0.01 | 0.00 | 90 | 1018.6 |
| 20260504043023 | 46 | 163 | 0.0 | 0.0 | 0.00 | 0.01 | 0.00 | 90 | 1018.7 |
| 20260504041521 | 46 | 163 | 0.0 | 0.0 | 0.00 | 0.01 | 0.00 | 89 | 1018.7 |
| 20260504034602 | 46 | 163 | 0.0 | 0.0 | 0.00 | 0.01 | 0.01 | 88 | 1018.6 |
| 20260504033113 | 47 | 163 | 0.0 | 0.0 | 0.00 | 0.01 | 0.01 | 88 | 1018.6 |
| 20260504031505 | 47 | 163 | 0.0 | 0.0 | 0.00 | 0.01 | 0.01 | 87 | 1018.7 |
| 20260504030008 | 47 | 163 | 0.0 | 0.0 | 0.00 | 0.01 | 0.01 | 87 | 1018.6 |
| 20260504024507 | 47 | 163 | 0.0 | 0.0 | 0.00 | 0.01 | 0.01 | 86 | 1018.6 |
| 20260504023004 | 47 | 163 | 0.0 | 0.0 | 0.00 | 0.01 | 0.01 | 84 | 1018.5 |
| 20260504021541 | 48 | 163 | 0.0 | 0.0 | 0.00 | 0.01 | 0.01 | 83 | 1018.4 |
| 20260504020041 | 48 | 163 | 0.0 | 0.0 | 0.00 | 0.01 | 0.01 | 82 | 1018.4 |
| 20260504014601 | 49 | 163 | 0.0 | 0.0 | 0.00 | 0.01 | 0.01 | 80 | 1018.1 |
| 20260504014505 | 49 | 163 | 0.0 | 0.0 | 0.00 | 0.01 | 0.01 | 80 | 1018.1 |
| 20260504013121 | 49 | 163 | 0.0 | 0.0 | 0.00 | 0.01 | 0.01 | 78 | 1018.0 |
| 20260504011531 | 50 | 163 | 0.0 | 0.0 | 0.00 | 0.01 | 0.01 | 76 | 1017.7 |